| time (UTC) | temp C | wind direction | speed KPH | gust KPH | rain 1hr cm | rain 24hr cm | rain mn cm | humidity % | barometer mb |
| 20260509045306 | 15 | 67 | 0.0 | 1.6 | 0.00 | 0.36 | 0.00 | 85 | 1011.2 |
| 20260509044802 | 14 | 67 | 1.6 | 3.2 | 0.00 | 0.36 | 0.00 | 85 | 1011.2 |
| 20260509044302 | 14 | 67 | 0.0 | 1.6 | 0.00 | 0.36 | 0.00 | 85 | 1011.2 |
| 20260509043801 | 14 | 67 | 0.0 | 3.2 | 0.00 | 0.36 | 0.00 | 85 | 1011.2 |
| 20260509043301 | 14 | 67 | 3.2 | 3.2 | 0.00 | 0.36 | 0.00 | 85 | 1011.3 |
| 20260509042801 | 14 | 67 | 1.6 | 3.2 | 0.00 | 0.36 | 0.00 | 85 | 1011.2 |
| 20260509042301 | 13 | 67 | 0.0 | 1.6 | 0.00 | 0.36 | 0.00 | 86 | 1011.2 |
| 20260509041800 | 13 | 67 | 0.0 | 0.0 | 0.00 | 0.36 | 0.00 | 86 | 1011.2 |
| 20260509041300 | 13 | 67 | 0.0 | 1.6 | 0.00 | 0.36 | 0.00 | 86 | 1011.1 |
| 20260509040800 | 13 | 67 | 0.0 | 3.2 | 0.00 | 0.36 | 0.00 | 86 | 1011.1 |
| 20260509040259 | 13 | 67 | 1.6 | 1.6 | 0.00 | 0.36 | 0.00 | 86 | 1011.0 |
| 20260509035759 | 13 | 67 | 0.0 | 3.2 | 0.00 | 0.36 | 0.00 | 86 | 1011.1 |
| 20260509035259 | 13 | 67 | 1.6 | 4.8 | 0.00 | 0.36 | 0.00 | 86 | 1011.0 |
| 20260509034759 | 13 | 67 | 0.0 | 1.6 | 0.00 | 0.36 | 0.00 | 86 | 1011.1 |
| 20260509034258 | 13 | 67 | 0.0 | 1.6 | 0.00 | 0.36 | 0.00 | 86 | 1011.0 |
| 20260509033758 | 13 | 67 | 0.0 | 3.2 | 0.00 | 0.36 | 0.00 | 86 | 1010.9 |
| 20260509033258 | 13 | 67 | 0.0 | 3.2 | 0.00 | 0.36 | 0.00 | 86 | 1010.9 |
| 20260509032757 | 13 | 67 | 0.0 | 1.6 | 0.00 | 0.36 | 0.00 | 86 | 1011.0 |
| 20260509032257 | 13 | 67 | 0.0 | 3.2 | 0.00 | 0.36 | 0.00 | 86 | 1011.0 |
| 20260509031757 | 13 | 67 | 0.0 | 0.0 | 0.00 | 0.36 | 0.00 | 86 | 1011.0 |
| 20260509031256 | 13 | 67 | 0.0 | 1.6 | 0.00 | 0.36 | 0.00 | 86 | 1011.0 |
| 20260509030756 | 13 | 67 | 0.0 | 0.0 | 0.00 | 0.36 | 0.00 | 86 | 1011.0 |
| 20260509030256 | 13 | 67 | 0.0 | 3.2 | 0.00 | 0.36 | 0.00 | 86 | 1011.0 |
| 20260509025756 | 13 | 67 | 1.6 | 3.2 | 0.00 | 0.36 | 0.00 | 86 | 1010.9 |
| 20260509025255 | 13 | 67 | 0.0 | 0.0 | 0.00 | 0.36 | 0.00 | 86 | 1010.9 |
| 20260509024755 | 13 | 67 | 0.0 | 1.6 | 0.00 | 0.36 | 0.00 | 86 | 1010.9 |
| 20260509024255 | 13 | 67 | 1.6 | 3.2 | 0.00 | 0.36 | 0.00 | 86 | 1010.9 |
| 20260509023754 | 13 | 67 | 0.0 | 1.6 | 0.00 | 0.36 | 0.00 | 85 | 1010.9 |
| 20260509023254 | 13 | 67 | 0.0 | 0.0 | 0.00 | 0.36 | 0.00 | 85 | 1010.9 |
| 20260509022754 | 13 | 67 | 0.0 | 0.0 | 0.00 | 0.36 | 0.00 | 85 | 1010.8 |
| 20260509022254 | 13 | 67 | 0.0 | 0.0 | 0.00 | 0.36 | 0.00 | 85 | 1010.9 |
| 20260509021753 | 13 | 67 | 0.0 | 1.6 | 0.00 | 0.36 | 0.00 | 85 | 1010.9 |
| 20260509021253 | 13 | 67 | 0.0 | 1.6 | 0.00 | 0.36 | 0.00 | 85 | 1010.9 |
| 20260509020753 | 13 | 67 | 0.0 | 3.2 | 0.00 | 0.36 | 0.00 | 85 | 1010.8 |
| 20260509020252 | 13 | 67 | 0.0 | 0.0 | 0.00 | 0.36 | 0.00 | 85 | 1010.9 |
| 20260509015752 | 13 | 67 | 0.0 | 0.0 | 0.00 | 0.36 | 0.00 | 85 | 1010.9 |
| 20260509015252 | 13 | 67 | 0.0 | 0.0 | 0.00 | 0.36 | 0.00 | 86 | 1010.9 |
| 20260509014751 | 13 | 67 | 0.0 | 0.0 | 0.00 | 0.36 | 0.00 | 86 | 1011.0 |
| 20260509014251 | 13 | 67 | 0.0 | 0.0 | 0.00 | 0.36 | 0.00 | 86 | 1011.0 |
| 20260509013751 | 13 | 67 | 0.0 | 0.0 | 0.00 | 0.36 | 0.00 | 86 | 1011.1 |
| 20260509013251 | 13 | 67 | 0.0 | 0.0 | 0.00 | 0.36 | 0.00 | 85 | 1011.0 |
| 20260509012750 | 13 | 67 | 0.0 | 0.0 | 0.00 | 0.36 | 0.00 | 85 | 1011.1 |
| 20260509012250 | 13 | 67 | 0.0 | 1.6 | 0.00 | 0.36 | 0.00 | 85 | 1011.2 |
| 20260509011750 | 13 | 67 | 0.0 | 0.0 | 0.00 | 0.36 | 0.00 | 85 | 1011.1 |
| 20260509011250 | 13 | 67 | 0.0 | 0.0 | 0.00 | 0.36 | 0.00 | 85 | 1011.1 |
| 20260509010749 | 13 | 67 | 0.0 | 1.6 | 0.00 | 0.36 | 0.00 | 86 | 1011.2 |
| 20260509010249 | 13 | 67 | 1.6 | 3.2 | 0.00 | 0.36 | 0.00 | 86 | 1011.2 |
| 20260509005749 | 13 | 67 | 3.2 | 3.2 | 0.00 | 0.36 | 0.00 | 86 | 1011.2 |
| 20260509005248 | 13 | 67 | 0.0 | 1.6 | 0.00 | 0.36 | 0.00 | 86 | 1011.2 |
| 20260509004748 | 13 | 67 | 0.0 | 1.6 | 0.00 | 0.36 | 0.00 | 86 | 1011.2 |
| 20260509004248 | 13 | 67 | 0.0 | 3.2 | 0.00 | 0.36 | 0.00 | 86 | 1011.2 |
| 20260509003747 | 13 | 67 | 0.0 | 1.6 | 0.00 | 0.36 | 0.00 | 86 | 1011.3 |
| 20260509003247 | 13 | 67 | 0.0 | 3.2 | 0.00 | 0.36 | 0.00 | 86 | 1011.2 |
| 20260509002747 | 13 | 90 | 0.0 | 3.2 | 0.00 | 0.41 | 0.00 | 86 | 1011.2 |
| 20260509002246 | 13 | 90 | 0.0 | 4.8 | 0.00 | 0.41 | 0.00 | 86 | 1011.2 |
| 20260509001746 | 13 | 90 | 3.2 | 4.8 | 0.00 | 0.41 | 0.00 | 87 | 1011.2 |
| 20260509001246 | 13 | 90 | 4.8 | 6.4 | 0.00 | 0.41 | 0.00 | 87 | 1011.3 |
| 20260509000746 | 13 | 90 | 3.2 | 3.2 | 0.00 | 0.41 | 0.00 | 87 | 1011.2 |
| 20260509000245 | 13 | 67 | 1.6 | 3.2 | 0.00 | 0.41 | 0.00 | 87 | 1011.3 |
| 20260508235745 | 13 | 67 | 3.2 | 4.8 | 0.00 | 0.41 | 0.00 | 87 | 1011.3 |
| 20260508235245 | 13 | 112 | 0.0 | 3.2 | 0.00 | 0.41 | 0.00 | 87 | 1011.2 |
| 20260508234744 | 13 | 112 | 3.2 | 4.8 | 0.00 | 0.41 | 0.00 | 87 | 1011.2 |
| 20260508234244 | 13 | 135 | 0.0 | 1.6 | 0.00 | 0.41 | 0.00 | 87 | 1011.3 |
| 20260508233744 | 13 | 135 | 0.0 | 0.0 | 0.00 | 0.41 | 0.00 | 87 | 1011.2 |
| 20260508233244 | 13 | 135 | 0.0 | 3.2 | 0.00 | 0.41 | 0.00 | 87 | 1011.2 |
| 20260508232743 | 13 | 135 | 0.0 | 3.2 | 0.00 | 0.41 | 0.00 | 87 | 1011.2 |
| 20260508232243 | 13 | 135 | 0.0 | 3.2 | 0.00 | 0.41 | 0.00 | 87 | 1011.2 |
| 20260508231743 | 13 | 135 | 0.0 | 3.2 | 0.00 | 0.41 | 0.00 | 86 | 1011.2 |
| 20260508231242 | 13 | 202 | 0.0 | 3.2 | 0.00 | 0.41 | 0.00 | 86 | 1011.3 |
| 20260508230742 | 13 | 202 | 1.6 | 1.6 | 0.00 | 0.41 | 0.00 | 86 | 1011.4 |
| 20260508230242 | 13 | 202 | 0.0 | 0.0 | 0.05 | 0.41 | 0.00 | 86 | 1011.3 |
| 20260508225742 | 13 | 202 | 0.0 | 0.0 | 0.05 | 0.41 | 0.00 | 86 | 1011.4 |
| 20260508225241 | 13 | 202 | 0.0 | 0.0 | 0.05 | 0.41 | 0.00 | 86 | 1011.4 |
| 20260508224741 | 13 | 202 | 0.0 | 0.0 | 0.05 | 0.41 | 0.00 | 86 | 1011.4 |
| 20260508224241 | 13 | 202 | 0.0 | 1.6 | 0.05 | 0.41 | 0.00 | 86 | 1011.4 |
| 20260508223740 | 13 | 202 | 0.0 | 1.6 | 0.05 | 0.41 | 0.00 | 86 | 1011.5 |
| 20260508223240 | 13 | 202 | 1.6 | 3.2 | 0.05 | 0.41 | 0.00 | 85 | 1011.6 |
| 20260508222740 | 14 | 202 | 0.0 | 0.0 | 0.05 | 0.41 | 0.00 | 85 | 1011.6 |
| 20260508222240 | 14 | 202 | 0.0 | 0.0 | 0.05 | 0.41 | 0.00 | 85 | 1011.6 |
| 20260508221739 | 14 | 202 | 0.0 | 1.6 | 0.05 | 0.41 | 0.00 | 84 | 1011.6 |
| 20260508221239 | 14 | 202 | 0.0 | 1.6 | 0.05 | 0.41 | 0.00 | 84 | 1011.7 |
| 20260508220739 | 14 | 202 | 0.0 | 0.0 | 0.00 | 0.36 | 0.00 | 83 | 1011.7 |
| 20260508220238 | 14 | 202 | 0.0 | 0.0 | 0.00 | 0.36 | 0.00 | 83 | 1011.7 |
| 20260508215738 | 14 | 202 | 0.0 | 1.6 | 0.00 | 0.36 | 0.00 | 83 | 1011.8 |
| 20260508215238 | 14 | 202 | 0.0 | 0.0 | 0.00 | 0.36 | 0.00 | 83 | 1011.9 |
| 20260508214737 | 14 | 202 | 0.0 | 0.0 | 0.00 | 0.36 | 0.00 | 83 | 1011.8 |
| 20260508214237 | 14 | 202 | 0.0 | 0.0 | 0.00 | 0.36 | 0.00 | 83 | 1011.8 |
| 20260508213737 | 14 | 202 | 0.0 | 0.0 | 0.00 | 0.36 | 0.00 | 83 | 1011.8 |
| 20260508213237 | 14 | 202 | 0.0 | 0.0 | 0.00 | 0.36 | 0.00 | 82 | 1011.7 |
| 20260508212736 | 15 | 202 | 0.0 | 1.6 | 0.05 | 0.36 | 0.00 | 82 | 1011.9 |
| 20260508212236 | 15 | 202 | 0.0 | 0.0 | 0.05 | 0.36 | 0.00 | 82 | 1011.9 |
| 20260508211736 | 15 | 202 | 0.0 | 0.0 | 0.05 | 0.36 | 0.00 | 82 | 1011.9 |
| 20260508211235 | 15 | 202 | 0.0 | 0.0 | 0.05 | 0.36 | 0.00 | 82 | 1012.0 |
| 20260508210735 | 15 | 202 | 0.0 | 0.0 | 0.05 | 0.36 | 0.00 | 82 | 1012.0 |
| 20260508210235 | 15 | 202 | 0.0 | 0.0 | 0.10 | 0.36 | 0.00 | 82 | 1012.0 |
| 20260508205734 | 15 | 202 | 0.0 | 0.0 | 0.10 | 0.36 | 0.00 | 81 | 1012.0 |
| 20260508205234 | 15 | 202 | 0.0 | 0.0 | 0.10 | 0.36 | 0.00 | 80 | 1012.0 |
| 20260508204734 | 15 | 202 | 0.0 | 1.6 | 0.10 | 0.36 | 0.00 | 80 | 1012.0 |
| 20260508204234 | 15 | 202 | 0.0 | 1.6 | 0.10 | 0.36 | 0.00 | 79 | 1012.0 |
| 20260508203733 | 15 | 202 | 0.0 | 0.0 | 0.10 | 0.36 | 0.00 | 79 | 1012.1 |
| 20260508203233 | 15 | 202 | 0.0 | 1.6 | 0.05 | 0.30 | 0.00 | 78 | 1012.0 |
| 20260508202733 | 15 | 202 | 0.0 | 4.8 | 0.05 | 0.30 | 0.00 | 78 | 1012.1 |
| 20260508202232 | 16 | 202 | 1.6 | 3.2 | 0.05 | 0.30 | 0.00 | 78 | 1012.1 |
| 20260508201732 | 16 | 202 | 0.0 | 3.2 | 0.10 | 0.30 | 0.00 | 77 | 1012.1 |
| 20260508201232 | 16 | 202 | 0.0 | 8.0 | 0.10 | 0.30 | 0.00 | 77 | 1012.1 |
| 20260508200732 | 16 | 202 | 3.2 | 6.4 | 0.05 | 0.25 | 0.00 | 77 | 1012.1 |
| 20260508200231 | 16 | 225 | 1.6 | 6.4 | 0.05 | 0.25 | 0.00 | 77 | 1012.1 |
| 20260508195731 | 16 | 225 | 0.0 | 3.2 | 0.05 | 0.25 | 0.00 | 76 | 1012.0 |
| 20260508195231 | 16 | 225 | 0.0 | 4.8 | 0.05 | 0.25 | 0.00 | 77 | 1012.0 |
| 20260508194730 | 16 | 225 | 0.0 | 3.2 | 0.05 | 0.25 | 0.00 | 76 | 1011.9 |
| 20260508194230 | 16 | 225 | 0.0 | 4.8 | 0.05 | 0.25 | 0.00 | 76 | 1011.9 |
| 20260508193730 | 16 | 225 | 0.0 | 4.8 | 0.05 | 0.25 | 0.00 | 75 | 1011.9 |
| 20260508193229 | 17 | 292 | 0.0 | 0.0 | 0.05 | 0.25 | 0.00 | 74 | 1011.9 |
| 20260508192729 | 17 | 292 | 0.0 | 0.0 | 0.05 | 0.25 | 0.00 | 72 | 1011.9 |
| 20260508192229 | 17 | 292 | 0.0 | 0.0 | 0.05 | 0.25 | 0.00 | 71 | 1011.8 |
| 20260508191729 | 17 | 292 | 0.0 | 0.0 | 0.00 | 0.20 | 0.00 | 71 | 1011.8 |
| 20260508191228 | 17 | 292 | 0.0 | 3.2 | 0.00 | 0.20 | 0.00 | 70 | 1011.6 |
| 20260508190728 | 17 | 292 | 3.2 | 3.2 | 0.00 | 0.20 | 0.00 | 69 | 1011.7 |
| 20260508190228 | 17 | 292 | 0.0 | 3.2 | 0.00 | 0.20 | 0.00 | 69 | 1011.7 |
| 20260508185727 | 17 | 292 | 3.2 | 3.2 | 0.00 | 0.20 | 0.00 | 69 | 1011.7 |
| 20260508185227 | 17 | 292 | 0.0 | 3.2 | 0.00 | 0.20 | 0.00 | 70 | 1011.6 |
| 20260508184727 | 17 | 292 | 3.2 | 3.2 | 0.00 | 0.20 | 0.00 | 70 | 1011.5 |
| 20260508184227 | 17 | 292 | 0.0 | 1.6 | 0.00 | 0.20 | 0.00 | 70 | 1011.6 |
| 20260508183726 | 17 | 292 | 0.0 | 1.6 | 0.00 | 0.20 | 0.00 | 70 | 1011.5 |
| 20260508183226 | 17 | 292 | 0.0 | 3.2 | 0.00 | 0.20 | 0.00 | 70 | 1011.5 |
| 20260508182726 | 17 | 0 | 0.0 | 0.0 | 0.00 | 0.20 | 0.00 | 70 | 1011.4 |
| 20260508182225 | 17 | 0 | 0.0 | 3.2 | 0.00 | 0.20 | 0.00 | 68 | 1011.3 |
| 20260508181725 | 17 | 292 | 1.6 | 3.2 | 0.00 | 0.20 | 0.00 | 68 | 1011.3 |
| 20260508181225 | 17 | 337 | 0.0 | 0.0 | 0.00 | 0.20 | 0.00 | 67 | 1011.1 |
| 20260508180725 | 17 | 337 | 0.0 | 0.0 | 0.00 | 0.20 | 0.00 | 67 | 1011.0 |
| 20260508180224 | 17 | 337 | 0.0 | 1.6 | 0.00 | 0.20 | 0.00 | 67 | 1011.0 |
| 20260508175724 | 17 | 337 | 0.0 | 3.2 | 0.00 | 0.20 | 0.00 | 67 | 1010.9 |
| 20260508175224 | 17 | 292 | 0.0 | 0.0 | 0.00 | 0.20 | 0.00 | 67 | 1010.8 |
| 20260508174723 | 17 | 292 | 0.0 | 3.2 | 0.00 | 0.20 | 0.00 | 66 | 1010.8 |
| 20260508174223 | 17 | 292 | 0.0 | 3.2 | 0.00 | 0.20 | 0.00 | 67 | 1010.8 |
| 20260508173723 | 17 | 292 | 3.2 | 3.2 | 0.00 | 0.20 | 0.00 | 67 | 1010.7 |
| 20260508173226 | 17 | 292 | 0.0 | 6.4 | 0.00 | 0.20 | 0.00 | 67 | 1010.7 |
| 20260508172722 | 17 | 292 | 0.0 | 4.8 | 0.00 | 0.20 | 0.00 | 67 | 1010.7 |
| 20260508172222 | 17 | 247 | 1.6 | 11.3 | 0.00 | 0.20 | 0.00 | 67 | 1010.7 |
| 20260508171722 | 17 | 292 | 3.2 | 11.3 | 0.00 | 0.20 | 0.00 | 67 | 1010.7 |
| 20260508171221 | 17 | 292 | 4.8 | 9.7 | 0.00 | 0.20 | 0.00 | 67 | 1010.6 |
| 20260508170721 | 18 | 247 | 3.2 | 8.0 | 0.00 | 0.20 | 0.00 | 67 | 1010.5 |
| 20260508170221 | 18 | 292 | 4.8 | 14.5 | 0.00 | 0.20 | 0.00 | 67 | 1010.3 |
| 20260508165720 | 18 | 292 | 1.6 | 12.9 | 0.00 | 0.20 | 0.00 | 66 | 1010.2 |
| 20260508165220 | 18 | 292 | 12.9 | 20.9 | 0.00 | 0.20 | 0.00 | 65 | 1010.2 |
| 20260508164720 | 19 | 247 | 3.2 | 9.7 | 0.00 | 0.20 | 0.00 | 64 | 1010.2 |
| 20260508164220 | 20 | 292 | 3.2 | 11.3 | 0.00 | 0.20 | 0.00 | 63 | 1010.2 |
| 20260508163719 | 20 | 292 | 0.0 | 8.0 | 0.00 | 0.20 | 0.00 | 63 | 1010.0 |
| 20260508163219 | 20 | 292 | 6.4 | 14.5 | 0.00 | 0.20 | 0.00 | 62 | 1009.9 |
| 20260508162719 | 20 | 292 | 4.8 | 8.0 | 0.00 | 0.20 | 0.00 | 61 | 1009.9 |
| 20260508162218 | 20 | 292 | 8.0 | 9.7 | 0.00 | 0.20 | 0.00 | 60 | 1009.9 |
| 20260508161718 | 21 | 292 | 0.0 | 9.7 | 0.00 | 0.20 | 0.00 | 59 | 1009.9 |
| 20260508161218 | 21 | 292 | 6.4 | 6.4 | 0.00 | 0.20 | 0.00 | 58 | 1009.9 |
| 20260508160717 | 21 | 292 | 3.2 | 9.7 | 0.00 | 0.20 | 0.00 | 57 | 1009.9 |
| 20260508160217 | 21 | 315 | 4.8 | 8.0 | 0.00 | 0.20 | 0.00 | 57 | 1009.9 |
| 20260508155717 | 21 | 292 | 4.8 | 12.9 | 0.00 | 0.20 | 0.00 | 55 | 1010.0 |
| 20260508155217 | 22 | 292 | 0.0 | 6.4 | 0.00 | 0.20 | 0.00 | 55 | 1009.8 |
| 20260508154716 | 22 | 247 | 3.2 | 6.4 | 0.00 | 0.20 | 0.00 | 54 | 1009.8 |
| 20260508154216 | 22 | 247 | 3.2 | 6.4 | 0.00 | 0.20 | 0.00 | 54 | 1009.8 |
| 20260508153716 | 22 | 315 | 0.0 | 3.2 | 0.00 | 0.20 | 0.00 | 53 | 1009.8 |
| 20260508153215 | 23 | 315 | 0.0 | 8.0 | 0.00 | 0.20 | 0.00 | 52 | 1009.9 |
| 20260508152715 | 23 | 225 | 3.2 | 8.0 | 0.00 | 0.20 | 0.00 | 51 | 1009.9 |
| 20260508152215 | 24 | 225 | 8.0 | 8.0 | 0.00 | 0.20 | 0.00 | 50 | 1009.9 |
| 20260508151715 | 25 | 247 | 0.0 | 9.7 | 0.00 | 0.20 | 0.00 | 49 | 1010.0 |
| 20260508151214 | 26 | 292 | 3.2 | 9.7 | 0.00 | 0.20 | 0.00 | 49 | 1010.2 |
| 20260508150714 | 26 | 225 | 1.6 | 4.8 | 0.00 | 0.20 | 0.00 | 50 | 1010.1 |
| 20260508150214 | 25 | 292 | 0.0 | 3.2 | 0.00 | 0.20 | 0.00 | 52 | 1010.4 |
| 20260508145713 | 25 | 315 | 1.6 | 6.4 | 0.00 | 0.20 | 0.00 | 52 | 1010.4 |
| 20260508145213 | 25 | 315 | 1.6 | 8.0 | 0.00 | 0.20 | 0.00 | 52 | 1010.5 |
| 20260508144713 | 25 | 292 | 3.2 | 4.8 | 0.00 | 0.20 | 0.00 | 52 | 1010.4 |
| 20260508144212 | 25 | 247 | 0.0 | 4.8 | 0.00 | 0.20 | 0.00 | 52 | 1010.4 |
| 20260508143712 | 25 | 247 | 0.0 | 6.4 | 0.00 | 0.20 | 0.00 | 54 | 1010.3 |
| 20260508143212 | 24 | 292 | 0.0 | 3.2 | 0.00 | 0.20 | 0.00 | 54 | 1010.4 |
| 20260508142712 | 23 | 292 | 0.0 | 6.4 | 0.00 | 0.20 | 0.00 | 56 | 1010.3 |
| 20260508142211 | 23 | 247 | 0.0 | 6.4 | 0.00 | 0.20 | 0.00 | 57 | 1010.3 |
| 20260508141711 | 23 | 247 | 1.6 | 9.7 | 0.00 | 0.20 | 0.00 | 58 | 1010.3 |
| 20260508141211 | 22 | 202 | 1.6 | 9.7 | 0.00 | 0.20 | 0.00 | 59 | 1010.4 |
| 20260508140710 | 21 | 225 | 6.4 | 9.7 | 0.00 | 0.20 | 0.00 | 61 | 1010.5 |
| 20260508140210 | 21 | 247 | 0.0 | 11.3 | 0.00 | 0.20 | 0.00 | 61 | 1010.6 |
| 20260508135710 | 21 | 225 | 8.0 | 12.9 | 0.00 | 0.20 | 0.00 | 62 | 1010.6 |
| 20260508135209 | 20 | 202 | 3.2 | 11.3 | 0.00 | 0.20 | 0.00 | 64 | 1010.7 |
| 20260508134709 | 20 | 202 | 8.0 | 16.1 | 0.00 | 0.20 | 0.00 | 65 | 1010.9 |
| 20260508134209 | 20 | 225 | 4.8 | 6.4 | 0.00 | 0.20 | 0.00 | 65 | 1010.7 |
| 20260508133732 | 20 | 225 | 1.6 | 17.7 | 0.00 | 0.20 | 0.00 | 64 | 1010.8 |
| 20260508133208 | 20 | 225 | 14.5 | 17.7 | 0.00 | 0.20 | 0.00 | 63 | 1011.1 |
| 20260508132708 | 21 | 247 | 9.7 | 16.1 | 0.00 | 0.20 | 0.00 | 61 | 1011.2 |
| 20260508132208 | 21 | 292 | 3.2 | 11.3 | 0.00 | 0.20 | 0.00 | 60 | 1011.0 |
| 20260508131707 | 21 | 225 | 6.4 | 12.9 | 0.00 | 0.20 | 0.00 | 61 | 1011.1 |
| 20260508131207 | 21 | 315 | 9.7 | 9.7 | 0.00 | 0.20 | 0.00 | 61 | 1011.1 |
| 20260508130707 | 21 | 292 | 3.2 | 17.7 | 0.05 | 0.20 | 0.00 | 61 | 1011.2 |
| 20260508130207 | 22 | 292 | 11.3 | 17.7 | 0.10 | 0.20 | 0.00 | 63 | 1011.1 |
| 20260508125706 | 22 | 292 | 3.2 | 12.9 | 0.15 | 0.20 | 0.00 | 63 | 1011.1 |
| 20260508125206 | 22 | 292 | 4.8 | 16.1 | 0.15 | 0.20 | 0.00 | 62 | 1011.2 |
| 20260508124706 | 21 | 292 | 6.4 | 8.0 | 0.15 | 0.20 | 0.00 | 64 | 1011.2 |
| 20260508124205 | 21 | 0 | 0.0 | 0.0 | 0.15 | 0.20 | 0.00 | 66 | 1011.1 |
| 20260508123705 | 20 | 0 | 0.0 | 3.2 | 0.15 | 0.20 | 0.00 | 65 | 1011.2 |
| 20260508123205 | 20 | 0 | 0.0 | 3.2 | 0.15 | 0.20 | 0.00 | 66 | 1011.3 |
| 20260508122704 | 20 | 337 | 1.6 | 3.2 | 0.15 | 0.20 | 0.00 | 67 | 1011.3 |
| 20260508122204 | 19 | 292 | 0.0 | 1.6 | 0.15 | 0.20 | 0.00 | 68 | 1011.4 |
| 20260508121704 | 20 | 292 | 1.6 | 1.6 | 0.15 | 0.20 | 0.00 | 67 | 1011.4 |
| 20260508121204 | 20 | 292 | 0.0 | 4.8 | 0.10 | 0.15 | 0.00 | 65 | 1011.5 |
| 20260508120703 | 21 | 225 | 4.8 | 8.0 | 0.05 | 0.10 | 0.00 | 62 | 1011.5 |
| 20260508120203 | 22 | 247 | 4.8 | 12.9 | 0.00 | 0.05 | 0.00 | 56 | 1011.5 |
| 20260508115703 | 23 | 292 | 0.0 | 12.9 | 0.00 | 0.05 | 0.00 | 50 | 1011.5 |
| 20260508115202 | 23 | 292 | 3.2 | 14.5 | 0.00 | 0.05 | 0.00 | 49 | 1011.4 |
| 20260508114702 | 24 | 292 | 1.6 | 17.7 | 0.00 | 0.05 | 0.00 | 48 | 1011.5 |
| 20260508114202 | 25 | 292 | 8.0 | 12.9 | 0.00 | 0.05 | 0.00 | 48 | 1011.4 |
| 20260508113702 | 25 | 292 | 1.6 | 14.5 | 0.00 | 0.05 | 0.00 | 47 | 1011.5 |
| 20260508113201 | 25 | 292 | 3.2 | 12.9 | 0.00 | 0.05 | 0.00 | 48 | 1011.4 |
| 20260508112701 | 25 | 292 | 4.8 | 14.5 | 0.00 | 0.05 | 0.00 | 48 | 1011.4 |
| 20260508112201 | 25 | 292 | 3.2 | 12.9 | 0.00 | 0.05 | 0.00 | 48 | 1011.4 |
| 20260508111700 | 25 | 292 | 8.0 | 9.7 | 0.00 | 0.05 | 0.00 | 48 | 1011.5 |
| 20260508111200 | 25 | 292 | 1.6 | 16.1 | 0.00 | 0.05 | 0.00 | 48 | 1011.5 |
| 20260508110700 | 25 | 292 | 0.0 | 4.8 | 0.00 | 0.05 | 0.00 | 48 | 1011.5 |
| 20260508110200 | 25 | 292 | 0.0 | 8.0 | 0.00 | 0.05 | 0.00 | 48 | 1011.5 |
| 20260508105659 | 25 | 292 | 6.4 | 16.1 | 0.00 | 0.05 | 0.00 | 48 | 1011.5 |
| 20260508105159 | 25 | 292 | 4.8 | 9.7 | 0.00 | 0.05 | 0.00 | 49 | 1011.3 |
| 20260508104659 | 25 | 292 | 1.6 | 9.7 | 0.00 | 0.05 | 0.00 | 49 | 1011.4 |
| 20260508104158 | 25 | 292 | 3.2 | 17.7 | 0.00 | 0.05 | 0.00 | 48 | 1011.4 |
| 20260508103658 | 25 | 292 | 8.0 | 9.7 | 0.00 | 0.05 | 0.00 | 49 | 1011.5 |
| 20260508103158 | 25 | 247 | 1.6 | 12.9 | 0.00 | 0.05 | 0.00 | 49 | 1011.4 |
| 20260508102657 | 25 | 292 | 6.4 | 14.5 | 0.00 | 0.05 | 0.00 | 49 | 1011.5 |
| 20260508102157 | 25 | 292 | 4.8 | 12.9 | 0.00 | 0.05 | 0.00 | 49 | 1011.5 |
| 20260508101657 | 25 | 292 | 12.9 | 12.9 | 0.00 | 0.05 | 0.00 | 50 | 1011.5 |
| 20260508101157 | 25 | 292 | 9.7 | 22.5 | 0.00 | 0.05 | 0.00 | 50 | 1011.6 |
| 20260508100656 | 24 | 292 | 6.4 | 19.3 | 0.00 | 0.05 | 0.00 | 51 | 1011.5 |
| 20260508100156 | 24 | 292 | 3.2 | 9.7 | 0.00 | 0.05 | 0.00 | 52 | 1011.6 |
| 20260508095656 | 23 | 292 | 1.6 | 14.5 | 0.00 | 0.05 | 0.00 | 53 | 1011.6 |
| 20260508095155 | 23 | 0 | 3.2 | 12.9 | 0.00 | 0.05 | 0.00 | 53 | 1011.7 |
| 20260508094655 | 23 | 292 | 0.0 | 11.3 | 0.00 | 0.05 | 0.00 | 53 | 1011.8 |
| 20260508094155 | 23 | 292 | 9.7 | 12.9 | 0.00 | 0.05 | 0.00 | 53 | 1011.9 |
| 20260508093655 | 23 | 292 | 11.3 | 16.1 | 0.00 | 0.05 | 0.00 | 53 | 1012.1 |
| 20260508093154 | 23 | 292 | 6.4 | 12.9 | 0.00 | 0.05 | 0.00 | 53 | 1012.1 |
| 20260508092654 | 23 | 292 | 4.8 | 12.9 | 0.00 | 0.05 | 0.00 | 53 | 1012.1 |
| 20260508092154 | 23 | 292 | 6.4 | 11.3 | 0.00 | 0.05 | 0.00 | 53 | 1012.0 |
| 20260508091653 | 23 | 337 | 3.2 | 12.9 | 0.00 | 0.05 | 0.00 | 53 | 1012.0 |
| 20260508091153 | 23 | 22 | 4.8 | 16.1 | 0.00 | 0.05 | 0.00 | 51 | 1012.0 |
| 20260508090653 | 23 | 292 | 11.3 | 16.1 | 0.00 | 0.05 | 0.00 | 53 | 1012.0 |
| 20260508090153 | 23 | 292 | 9.7 | 12.9 | 0.00 | 0.05 | 0.00 | 55 | 1012.0 |
| 20260508085652 | 22 | 22 | 0.0 | 9.7 | 0.00 | 0.05 | 0.00 | 56 | 1012.0 |
| 20260508085152 | 21 | 292 | 4.8 | 9.7 | 0.00 | 0.05 | 0.00 | 57 | 1012.1 |
| 20260508084652 | 21 | 22 | 6.4 | 11.3 | 0.00 | 0.05 | 0.00 | 57 | 1012.0 |
| 20260508084151 | 22 | 22 | 6.4 | 9.7 | 0.00 | 0.05 | 0.00 | 54 | 1012.0 |
| 20260508083651 | 22 | 22 | 8.0 | 11.3 | 0.00 | 0.05 | 0.00 | 53 | 1012.0 |
| 20260508083151 | 23 | 315 | 1.6 | 11.3 | 0.00 | 0.05 | 0.00 | 51 | 1012.1 |
| 20260508082650 | 25 | 22 | 4.8 | 12.9 | 0.00 | 0.05 | 0.00 | 51 | 1012.2 |
| 20260508082150 | 25 | 225 | 1.6 | 14.5 | 0.00 | 0.05 | 0.00 | 52 | 1012.1 |
| 20260508081650 | 25 | 292 | 3.2 | 8.0 | 0.00 | 0.05 | 0.00 | 51 | 1012.1 |
| 20260508081150 | 25 | 292 | 1.6 | 12.9 | 0.00 | 0.05 | 0.00 | 53 | 1012.0 |
| 20260508080649 | 25 | 337 | 3.2 | 9.7 | 0.00 | 0.05 | 0.00 | 54 | 1012.1 |
| 20260508080149 | 25 | 45 | 3.2 | 6.4 | 0.00 | 0.05 | 0.00 | 53 | 1012.0 |
| 20260508075649 | 24 | 292 | 0.0 | 6.4 | 0.00 | 0.05 | 0.00 | 55 | 1012.2 |
| 20260508075148 | 24 | 292 | 0.0 | 9.7 | 0.00 | 0.05 | 0.00 | 54 | 1012.2 |
| 20260508074648 | 24 | 292 | 4.8 | 14.5 | 0.00 | 0.05 | 0.00 | 57 | 1012.1 |
| 20260508074148 | 23 | 247 | 0.0 | 9.7 | 0.00 | 0.05 | 0.00 | 57 | 1012.1 |
| 20260508073648 | 22 | 315 | 1.6 | 8.0 | 0.00 | 0.05 | 0.00 | 58 | 1012.2 |
| 20260508073147 | 22 | 22 | 0.0 | 6.4 | 0.00 | 0.05 | 0.00 | 58 | 1012.2 |
| 20260508072647 | 22 | 292 | 1.6 | 8.0 | 0.00 | 0.05 | 0.00 | 60 | 1012.1 |
| 20260508072147 | 21 | 292 | 1.6 | 6.4 | 0.00 | 0.05 | 0.00 | 62 | 1012.2 |
| 20260508071646 | 21 | 22 | 3.2 | 4.8 | 0.00 | 0.05 | 0.00 | 62 | 1012.2 |
| 20260508071146 | 21 | 45 | 0.0 | 4.8 | 0.00 | 0.05 | 0.00 | 63 | 1012.2 |
| 20260508070646 | 21 | 22 | 3.2 | 8.0 | 0.00 | 0.05 | 0.00 | 62 | 1012.3 |
| 20260508070145 | 21 | 45 | 1.6 | 6.4 | 0.00 | 0.05 | 0.00 | 63 | 1012.3 |
| 20260508065645 | 20 | 292 | 1.6 | 6.4 | 0.00 | 0.05 | 0.00 | 66 | 1012.3 |
| 20260508065145 | 20 | 22 | 3.2 | 4.8 | 0.00 | 0.05 | 0.00 | 67 | 1012.3 |
| 20260508064645 | 19 | 22 | 3.2 | 6.4 | 0.00 | 0.05 | 0.00 | 67 | 1012.2 |
| 20260508064144 | 19 | 0 | 3.2 | 4.8 | 0.00 | 0.05 | 0.00 | 67 | 1012.2 |
| 20260508063644 | 19 | 337 | 0.0 | 4.8 | 0.00 | 0.05 | 0.00 | 66 | 1012.3 |
| 20260508063144 | 19 | 22 | 1.6 | 4.8 | 0.00 | 0.05 | 0.00 | 66 | 1012.2 |
| 20260508062643 | 20 | 22 | 3.2 | 3.2 | 0.00 | 0.05 | 0.00 | 65 | 1012.3 |
| 20260508062143 | 20 | 337 | 3.2 | 4.8 | 0.00 | 0.05 | 0.00 | 65 | 1012.3 |
| 20260508061643 | 20 | 45 | 1.6 | 3.2 | 0.00 | 0.05 | 0.00 | 65 | 1012.3 |
| 20260508061143 | 20 | 0 | 1.6 | 3.2 | 0.00 | 0.05 | 0.00 | 65 | 1012.3 |
| 20260508060642 | 20 | 0 | 0.0 | 3.2 | 0.00 | 0.05 | 0.00 | 65 | 1012.3 |
| 20260508060142 | 21 | 337 | 1.6 | 1.6 | 0.00 | 0.05 | 0.00 | 65 | 1012.2 |
| 20260508055642 | 21 | 337 | 0.0 | 0.0 | 0.00 | 0.05 | 0.00 | 66 | 1012.3 |
| 20260508055141 | 20 | 337 | 0.0 | 3.2 | 0.00 | 0.05 | 0.00 | 67 | 1012.3 |
| 20260508054641 | 20 | 0 | 3.2 | 3.2 | 0.00 | 0.05 | 0.00 | 68 | 1012.3 |
| 20260508054141 | 19 | 0 | 3.2 | 3.2 | 0.00 | 0.05 | 0.00 | 69 | 1012.3 |
| 20260508053640 | 18 | 0 | 0.0 | 3.2 | 0.00 | 0.05 | 0.00 | 68 | 1012.3 |
| 20260508053140 | 19 | 22 | 3.2 | 4.8 | 0.00 | 0.05 | 0.00 | 68 | 1012.2 |
| 20260508052640 | 20 | 0 | 3.2 | 4.8 | 0.00 | 0.05 | 0.00 | 69 | 1012.2 |
| 20260508052140 | 19 | 0 | 0.0 | 1.6 | 0.00 | 0.05 | 0.00 | 71 | 1012.3 |
| 20260508051639 | 18 | 0 | 0.0 | 3.2 | 0.00 | 0.05 | 0.00 | 72 | 1012.2 |
| 20260508051139 | 18 | 292 | 1.6 | 3.2 | 0.00 | 0.05 | 0.00 | 72 | 1012.2 |
| 20260508050639 | 18 | 292 | 1.6 | 3.2 | 0.00 | 0.05 | 0.00 | 73 | 1012.2 |
| 20260508050138 | 18 | 202 | 1.6 | 3.2 | 0.00 | 0.05 | 0.00 | 74 | 1012.2 |
| 20260508045638 | 18 | 202 | 3.2 | 3.2 | 0.00 | 0.05 | 0.00 | 75 | 1012.1 |